Preview of NWS' New Version of Forecast
This preview is not operational and should not be used for support decisions.

Regional Weather Roundup (RWR)

Issued by National Weather Service (NWS)

                            
000
ASCA42 TJSJ 251110
RWRPR 
PUERTO RICO/U.S. VIRGIN ISLANDS HOURLY WEATHER ROUNDUP
NATIONAL WEATHER SERVICE SAN JUAN PR
700 AM AST SAT MAY 25 2019

PRZ001>002-007>008-010-251200-
PUERTO RICO
  
CITY           SKY/WX    TMP DP  RH WIND       PRES   REMARKS
SAN JUAN LMM   PTSUNNY   79  72  78 CALM      29.97R                  
AGUADILLA      SUNNY     73  70  88 SE5       29.97                   
CEIBA          MOSUNNY   82  72  69 E10       29.98R                  
$$

VIZ001>002-251200-
U.S. VIRGIN ISLANDS
  
CITY           SKY/WX    TMP DP  RH WIND       PRES   REMARKS
CHARLOTTE AMA  SUNNY     82  72  69 E10       29.96R                  
CHRISTIANSTED  SUNNY     81  72  74 NE7       29.97R                  
$$

HOURLY WEATHER ROUNDUP FOR THE NEWS MEDIA
  
CITY           SKY/WX    TMP DP  RH WIND       PRES   REMARKS
ORLANDO        FAIR      71  68  90 CALM      30.11R                  
NEW YORK       PTSUNNY   57  53  86 CALM      30.23R                  
NEWARK         PTSUNNY   58  52  80 VRB5      30.22R                  
CHICAGO        MOCLDY    71  64  78 SW9       29.87R                  
HARTFORD       FAIR      51  48  89 CALM      30.18R                  
BOSTON         FAIR      59  44  57 W9        30.19R                  
DALLAS         PTCLDY    74  68  81 S13G21    30.01S                  
PHILADELPHIA   FAIR      59  52  77 SE7       30.22R                  
LOS ANGELES    PTCLDY    56  52  86 E3        29.88F                  
WASHINGTON DC  PTSUNNY   66  53  63 SE8       30.19R